KAITUO 1B
1 40912U 15049P   18010.92636223 +.00001049 +00000-0 +54237-4 0  9997
2 40912 097.4511 020.5220 0014678 193.1480 231.6279 15.18362051127808
TIANWANG 1C (TW-1C)
1 40926U 15051B   18011.09458323  .00006492  00000-0  13200-3 0  9998
2 40926  97.2050  54.2658 0012157 126.4272 286.0648 15.46564353129015
TIANWANG 1B (TW-1B)
1 40927U 15051C   18011.06396800  .00006209  00000-0  13151-3 0  9998
2 40927  97.2139  54.1535 0011521 136.5096 307.2838 15.45393495128930
TIANWANG 1A (TW-1A)
1 40928U 15051D   18010.78531815 +.00002540 +00000-0 +70496-4 0  9994
2 40928 097.2045 047.8118 0012469 161.4959 312.3190 15.37757836128583
LAPAN A2
1 40931U 15052B   18010.61099550  .00000691  00000-0  71686-5 0  9994
2 40931   5.9956 193.7979 0013630 301.6675  58.1101 14.76561900123673
LQSAT
1 40958U 15057A   18011.11444652  .00000014  00000-0  98556-5 0  9995
2 40958  97.9586  87.5788 0019390 117.9955 242.3231 14.73011130121725
CHUBUSAT 2
1 41338U 16012B   18010.86336197 +.00000291 +00000-0 +16016-4 0  9992
2 41338 031.0022 233.1392 0013996 314.8791 045.0708 14.99902392104190
CHUBUSAT 3
1 41339U 16012C   18011.03013735  .00000263  00000-0  13803-4 0  9993
2 41339  31.0085 230.9023 0013762 323.4592  36.5106 15.00095134104201
OUFTI-1
1 41458U 16025C   18011.13514453  .00001488  00000-0  82753-4 0  9993
2 41458  98.1597  65.4637 0169860 314.4896  44.2556 15.04143466 93821
E-STAR-2
1 41459U 16025D   18010.78340385 +.00000645 +00000-0 +38808-4 0  9991
2 41459 098.1583 064.9905 0170793 316.1978 042.5781 15.03910386093762
AAUSAT 4
1 41460U 16025E   18011.10087787  .00001221  00000-0  68347-4 0  9996
2 41460  98.1517  65.6064 0163380 312.1593  46.5886 15.05140957 93859
NUSAT 1
1 41557U 16033B   18011.20615820  .00001153  00000-0  45011-4 0  9995
2 41557  97.4485  95.6613 0013761 359.5901   0.5325 15.27902686 90180
BEESAT 4
1 41619U 16040W   18010.72879291  .00001247  00000-0  58194-4 0  9992
2 41619  97.4374  75.9199 0013206  66.1222 294.1396 15.21648755 74142
PRATHAM
1 41783U 16059A   18010.75414764  .00000027  00000-0  14700-4 0  9997
2 41783  98.1409  74.6786 0032724 228.3106 131.5295 14.62893256 68943
ALSAT 1N
1 41789U 16059G   18011.11690990  .00000066  00000-0  21787-4 0  9997
2 41789  98.1409  75.9441 0027335 219.8043 140.1165 14.64118118 69030
NAYIF 1
1 42017U 17008BX  18010.92781447 +.00001390 +00000-0 +60476-4 0  9992
2 42017 097.4700 076.7958 0005899 199.3732 160.7281 15.23931517050119
LILACSAT-1
1 42725U 98067ME  18011.17296106  .00015588  00000-0  17612-3 0  9990
2 42725  51.6384  74.6687 0005649   5.2499 354.8554 15.62654865 35910
MAX VALIER SAT
1 42778U 17036P   18010.89451441 +.00000866 +00000-0 +42180-4 0  9990
2 42778 097.4262 073.0612 0011202 258.7470 101.2507 15.20967626030595
